Weather History for Greybull, WY

Change the Weather History Date:

Saturday, March 9, 2013

  Actual Average Record
Temperature  
Mean Temperature 39 °F 34 °F  
Max Temperature 45 °F 48 °F 66 °F (2005)
Min Temperature 32 °F 21 °F -12 °F (2002)
Degree Days  
Heating Degree Days 26 31  
Month to date heating degree days 271 293  
Since 1 July heating degree days 6145 6264  
Cooling Degree Days 0 0  
Month to date cooling degree days 0 0  
Year to date cooling degree days 0 0  
Moisture  
Dew Point 21 °F    
Average Humidity 54    
Maximum Humidity 75    
Minimum Humidity 33    
Precipitation  
Precipitation 0.00 in 0.01 in 0.56 in (1970)
Month to date precipitation T 0.07  
Year to date precipitation 0.42 0.48  
Sea Level Pressure  
Sea Level Pressure 30.03 in    
Wind  
Wind Speed 17 mph (NNW)    
Max Wind Speed 35 mph    
Max Gust Speed 48 mph    
Visibility 10 miles    
Events      
T = Trace of Precipitation, MM = Missing Value Source: NWS Daily Summary

Daily Weather History Graph

Daily Weather History Graph

Search for Another Location

Airport:

Trip Planner

Search our weather history database for the weather conditions in past years. The results will help you decide how hot, cold, wet, or windy it might be!

Date:

Astronomy

Mar. 09, 2013 Rise Set
Actual Time 6:34 AM MST 6:11 PM MST
Civil Twilight 6:06 AM MST 6:40 PM MST
Nautical Twilight 5:32 AM MST 7:13 PM MST
Astronomical Twilight 4:58 AM MST 7:48 PM MST
Moon 5:04 AM MST (3/9) 4:13 PM MST (3/9)
Length of Visible Light 12h 34m
Length of Day
11h 36m
Waning Crescent, 5% of the Moon is Illuminated
Mar 9
Waning Crescent
Mar 11
New
Mar 19
First Quarter
Mar 27
Full
Apr 2
Last Quarter

Hourly Weather History & Observations

Time (MST) Temp. Windchill Dew Point Humidity Pressure Visibility Wind Dir Wind Speed Gust Speed Precip Events Conditions
12:53 AM 41.0 °F 32.2 °F 27.0 °F 57% 29.82 in 10.0 mi NNW 18.4 mph - N/A   Overcast
1:53 AM 39.0 °F 33.4 °F 28.0 °F 65% 29.84 in 10.0 mi North 8.1 mph - N/A   Overcast
2:53 AM 39.0 °F 31.4 °F 27.0 °F 62% 29.83 in 10.0 mi NNW 12.7 mph - N/A   Overcast
3:53 AM 36.0 °F 33.3 °F 28.0 °F 73% 29.86 in 10.0 mi East 3.5 mph - N/A   Overcast
4:53 AM 36.0 °F 32.1 °F 27.0 °F 70% 29.88 in 10.0 mi NW 4.6 mph - N/A   Overcast
5:53 AM 35.1 °F 29.3 °F 25.0 °F 67% 29.90 in 10.0 mi NW 6.9 mph - N/A   Overcast
6:53 AM 36.0 °F 25.3 °F 25.0 °F 64% 29.93 in 10.0 mi NW 19.6 mph 27.6 mph N/A   Partly Cloudy
7:53 AM 39.0 °F 27.8 °F 24.1 °F 55% 29.95 in 10.0 mi NNW 26.5 mph 34.5 mph N/A   Clear
8:53 AM 41.0 °F 31.4 °F 21.0 °F 45% 29.98 in 10.0 mi NNW 21.9 mph 31.1 mph N/A   Clear
9:53 AM 42.1 °F 31.7 °F 19.0 °F 40% 29.99 in 10.0 mi NNW 27.6 mph 39.1 mph N/A   Clear
10:53 AM 42.1 °F 31.3 °F 19.0 °F 40% 30.03 in 10.0 mi NNW 29.9 mph 35.7 mph N/A   Clear
11:53 AM 43.0 °F 32.9 °F 18.0 °F 37% 30.03 in 10.0 mi North 27.6 mph 44.9 mph N/A   Clear
12:53 PM 44.1 °F 34.8 °F 19.9 °F 38% 30.05 in 10.0 mi NNW 25.3 mph 41.4 mph N/A   Mostly Cloudy
1:53 PM 43.0 °F 34.5 °F 19.0 °F 38% 30.06 in 10.0 mi NNW 19.6 mph 31.1 mph N/A   Overcast
2:53 PM 43.0 °F 34.5 °F 18.0 °F 37% 30.07 in 10.0 mi NNW 19.6 mph 29.9 mph N/A   Mostly Cloudy
3:53 PM 43.0 °F 35.1 °F 17.1 °F 35% 30.09 in 10.0 mi North 17.3 mph 31.1 mph N/A   Mostly Cloudy
4:53 PM 43.0 °F 33.3 °F 16.0 °F 34% 30.10 in 10.0 mi NNW 25.3 mph 34.5 mph N/A   Scattered Clouds
5:53 PM 41.0 °F 32.8 °F 16.0 °F 36% 30.14 in 10.0 mi North 16.1 mph 28.8 mph N/A   Clear
6:53 PM 39.0 °F 31.4 °F 15.1 °F 38% 30.17 in 10.0 mi NNW 12.7 mph 18.4 mph N/A   Clear
7:53 PM 37.9 °F 30.0 °F 15.1 °F 39% 30.19 in 10.0 mi NNW 12.7 mph - N/A   Clear
8:53 PM 37.0 °F 28.1 °F 16.0 °F 42% 30.21 in 10.0 mi NW 15.0 mph 28.8 mph N/A   Partly Cloudy
9:53 PM 36.0 °F 27.5 °F 17.1 °F 46% 30.22 in 10.0 mi NNW 12.7 mph - N/A   Clear
10:53 PM 34.0 °F 26.6 °F 17.1 °F 50% 30.23 in 10.0 mi NW 9.2 mph - N/A   Clear
11:53 PM 33.1 °F 25.5 °F 18.0 °F 54% 30.24 in 10.0 mi NW 9.2 mph - N/A   Clear